Theta_e
352 351 351 348 347 345 345 340 316 327 324 315 316 320 317 330 329 327 327 331 325 337 334 336 332 334 333 330 332 333 334 329 331 315 314 335 347 349 351 353 355 355 355 357 358 359 360 362 364 363 363 363 363 364 365 365 365 366 366 365 365 364 364 364 364 364 364 364 364 364 364 364 364 365 363 363 364 362 363 363 364 364 363 362 362 363 362 361 361 364 359 359 360 359 360 360 358
351 350 349 348 343 346 332 341 321 320 319 315 318 324 326 331 327 325 324 328 331 333 334 331 334 336 336 337 335 335 333 335 337 335 340 346 350 350 353 354 355 354 355 357 358 359 360 362 364 363 364 364 364 364 365 365 366 366 365 365 365 365 364 364 363 363 364 363 364 364 365 363 363 362 362 363 363 363 362 362 364 364 363 363 361 362 362 362 363 364 364 363 363 362 362 361 360
349 348 347 346 346 343 345 338 316 317 313 309 317 323 330 326 324 325 329 331 333 332 331 331 336 336 334 335 330 330 326 338 339 341 340 348 343 346 353 355 355 355 356 357 358 359 359 362 364 364 364 365 365 364 364 365 366 365 365 365 365 365 364 364 364 363 363 364 364 363 363 364 362 362 363 362 361 361 362 362 362 362 363 363 363 363 362 362 362 363 363 362 362 362 361 362 362
348 347 344 344 336 340 331 328 321 317 312 314 315 325 328 327 326 329 332 335 333 332 331 330 329 337 333 328 330 336 333 334 340 340 339 343 343 349 352 354 356 356 356 357 358 359 359 363 364 364 365 365 365 365 365 366 365 365 365 365 365 365 364 364 364 363 364 364 363 364 363 363 362 362 363 362 362 362 363 362 362 363 364 363 363 361 362 361 362 363 363 363 363 363 362 362 362
352 354 353 344 339 328 327 323 320 321 312 317 315 328 328 330 329 331 336 337 334 335 331 332 330 336 337 333 335 329 331 339 340 344 342 345 350 352 352 354 355 355 355 357 357 358 360 363 364 365 365 366 366 365 365 365 364 364 365 365 364 364 365 364 364 363 363 363 364 363 363 362 362 362 362 362 362 362 362 363 362 362 363 363 363 362 361 362 363 362 362 362 362 362 362 362 362
349 349 354 349 334 344 332 320 319 318 323 328 322 325 330 332 331 336 336 334 337 333 331 330 328 329 330 333 337 332 339 331 340 342 344 344 350 353 354 355 353 353 355 356 356 357 359 364 365 365 366 366 366 365 364 364 365 365 364 364 364 364 363 363 362 363 363 363 363 363 362 361 361 361 361 361 362 361 361 362 362 362 363 362 362 361 361 362 362 361 361 361 362 362 361 362 362
344 345 344 341 339 339 320 317 317 320 325 330 327 328 329 333 337 336 330 331 335 331 333 330 333 331 327 334 338 341 345 345 342 343 346 347 350 353 354 353 353 353 355 356 356 357 360 365 365 366 367 366 365 364 364 365 365 364 363 364 364 363 362 362 361 362 362 362 362 362 362 362 362 362 362 364 363 362 361 362 362 361 362 362 360 360 363 362 362 360 361 362 363 362 362 363 363
352 340 341 332 327 327 319 320 320 324 327 330 332 329 333 336 336 334 331 329 326 325 329 331 332 329 328 339 329 340 345 347 346 349 349 349 351 351 353 353 352 352 354 356 357 358 365 365 366 366 366 365 364 363 364 365 365 363 362 363 363 362 361 360 361 361 362 362 361 362 362 362 362 362 362 362 363 363 362 362 361 363 362 361 360 360 361 361 361 360 361 362 362 362 363 363 363
345 339 349 331 322 325 321 319 321 331 331 333 335 337 337 336 336 333 327 331 329 330 329 330 332 326 328 332 332 340 343 347 349 351 349 349 349 351 353 352 351 352 355 357 358 360 362 365 366 366 365 365 364 363 364 365 364 362 363 363 361 360 361 361 361 361 361 361 361 362 362 362 362 362 362 362 362 362 362 361 361 361 361 361 361 361 360 361 361 360 360 361 361 362 363 363 363
340 341 328 326 326 316 318 320 319 326 329 334 333 334 336 337 336 335 333 330 329 328 330 334 334 328 332 329 334 338 340 346 348 348 349 350 351 351 352 352 352 352 355 357 358 359 361 367 365 365 365 364 363 364 364 364 364 363 363 362 361 361 361 361 361 361 361 362 361 360 362 363 363 362 361 363 361 360 361 361 363 362 361 361 360 360 360 361 361 360 361 360 361 362 362 363 364
329 341 341 324 318 315 315 318 322 328 329 335 334 337 337 334 335 331 333 335 339 329 331 334 330 330 332 331 334 345 347 347 346 344 349 350 351 350 350 353 353 353 353 356 358 360 362 362 366 365 364 364 364 364 364 364 363 363 363 362 362 361 360 360 360 360 361 361 361 361 360 361 361 362 363 363 362 362 362 361 361 362 361 360 360 360 360 360 359 360 361 361 362 362 363 363 363
326 331 332 318 317 316 320 318 322 327 331 331 330 337 340 339 336 330 330 331 331 329 329 333 328 335 329 330 332 342 346 346 346 347 349 351 350 351 351 352 353 353 354 356 359 360 361 362 362 365 365 364 364 364 364 364 363 363 363 362 361 361 361 361 361 360 361 361 360 360 361 361 361 361 362 362 362 361 361 362 361 361 360 360 360 360 360 360 359 360 361 361 362 363 364 363 363
331 333 327 321 320 321 324 321 322 325 326 328 330 336 344 339 335 333 331 334 337 328 330 334 335 335 326 328 336 341 341 344 347 348 349 349 349 351 351 351 352 353 355 358 357 358 361 360 361 361 362 366 365 364 364 363 363 363 362 362 361 362 361 361 361 360 361 361 361 360 361 361 360 360 359 360 360 360 361 360 361 360 360 360 361 360 360 360 360 360 361 361 362 362 363 363 362
334 336 330 319 328 323 321 322 324 320 323 330 337 340 339 337 335 338 332 330 336 329 333 336 334 334 329 332 332 335 340 346 348 349 349 350 350 350 350 351 352 353 355 356 356 359 359 359 359 359 361 361 361 362 362 362 363 362 362 361 361 361 362 361 361 360 361 360 360 361 361 361 361 361 361 361 361 361 359 358 359 360 360 361 361 361 360 361 361 361 361 361 362 362 362 363 363
335 340 331 324 321 323 325 319 321 322 322 335 339 336 335 341 342 342 338 332 332 338 337 340 336 331 323 327 327 333 340 346 348 349 349 349 349 349 350 351 351 352 353 355 357 357 357 357 358 359 360 359 358 356 357 360 362 363 362 362 361 362 361 361 361 361 361 361 361 362 362 362 362 362 362 361 362 361 360 357 357 358 359 360 361 361 360 360 360 362 361 361 362 362 362 363 362
341 340 331 321 319 320 323 323 326 324 325 337 340 338 337 340 348 339 341 345 335 342 337 329 337 330 331 330 332 339 343 346 347 348 348 347 348 348 349 349 349 351 353 354 355 356 356 356 357 358 358 358 358 357 357 357 361 362 362 362 362 362 361 361 361 360 361 361 362 361 361 361 362 360 363 359 360 360 360 355 355 357 358 358 359 360 360 361 361 361 361 361 361 362 363 364 363
343 342 323 322 318 322 324 324 325 318 331 336 340 338 334 335 348 347 352 347 337 334 333 334 332 336 332 333 338 343 344 347 348 346 346 345 345 344 345 346 348 350 352 353 353 354 356 357 358 358 358 358 358 358 357 357 359 362 362 362 362 361 360 360 361 361 361 360 360 361 361 358 358 357 357 357 362 359 361 359 357 356 357 359 359 360 360 360 361 362 361 362 363 363 363 363 364
340 329 324 320 321 322 328 327 330 333 330 335 338 340 338 333 340 343 348 341 340 338 338 333 335 335 336 337 340 343 345 344 344 343 343 341 342 340 340 343 345 346 348 350 353 355 355 356 357 357 358 358 358 359 358 358 357 357 354 355 358 358 359 362 360 359 361 357 362 359 359 360 356 356 357 362 360 360 358 360 360 357 356 359 360 361 361 361 362 363 363 363 363 363 363 357 360
331 329 325 318 328 328 336 334 337 333 332 336 340 339 340 336 341 341 336 333 333 334 332 331 332 334 336 337 338 341 342 342 342 342 341 340 339 339 341 343 345 347 348 350 352 355 356 356 357 357 356 357 357 357 358 357 352 352 353 354 358 360 359 358 358 358 356 357 357 358 360 357 358 358 358 360 360 361 360 362 361 360 358 361 361 361 362 362 363 363 363 364 363 362 359 355 356
341 330 323 325 331 333 336 338 336 341 338 337 337 339 338 336 337 342 334 329 331 330 329 329 329 329 332 335 337 339 340 340 341 340 340 340 341 342 344 345 345 347 349 350 351 356 357 357 357 356 356 357 355 355 357 355 354 352 352 354 355 355 356 357 355 355 356 357 357 357 356 358 358 357 361 362 363 357 358 361 361 361 361 360 360 361 361 361 362 363 363 363 364 363 355 356 356
335 330 327 327 331 331 334 341 338 342 342 338 338 339 335 337 340 339 331 327 328 333 330 330 328 330 332 334 337 338 338 339 340 340 340 340 342 345 346 347 347 348 349 352 354 355 356 357 356 357 357 356 355 356 355 353 354 353 353 352 354 355 355 356 357 356 356 357 356 356 356 358 357 356 356 356 354 356 354 354 355 355 355 356 361 354 356 359 358 356 358 362 358 359 357 355 355
334 328 333 332 334 332 336 342 342 339 343 339 338 336 335 344 342 337 334 329 327 333 332 334 333 333 333 334 336 338 338 338 338 338 338 339 341 343 347 348 350 350 352 351 352 354 356 357 357 356 357 357 356 355 355 357 357 354 352 352 353 353 352 355 355 355 358 357 356 358 360 357 357 356 355 354 355 355 353 353 354 356 355 356 361 355 355 357 357 357 357 357 358 359 356 354 354
329 332 330 335 336 334 338 340 340 341 339 337 336 339 342 339 337 339 334 335 341 344 336 336 335 335 336 337 337 337 337 337 338 337 338 339 341 344 346 347 348 350 351 351 354 355 356 357 357 357 357 357 357 357 358 357 354 354 355 355 352 352 352 352 354 356 358 358 359 360 358 357 356 354 354 354 354 355 354 354 354 356 356 355 357 357 356 357 357 357 356 356 357 357 355 352 352
331 329 332 332 337 336 340 340 343 341 338 336 341 345 338 337 331 341 336 341 344 341 337 337 337 337 337 336 337 336 337 337 337 339 339 340 342 344 345 346 350 352 351 353 353 354 355 356 357 358 358 357 356 357 357 356 356 356 358 357 354 355 353 354 353 356 357 356 359 359 361 356 354 353 353 354 355 355 355 356 356 356 356 356 357 358 355 355 354 354 356 357 357 355 352 351 350
328 327 331 332 340 339 340 341 341 342 341 342 343 339 338 341 337 339 340 345 342 343 339 337 337 336 336 336 336 336 336 336 337 338 339 340 341 344 345 347 349 350 350 351 352 352 353 356 356 357 358 357 357 357 356 357 356 356 355 354 354 358 356 355 357 357 354 356 357 357 359 356 354 354 353 356 357 355 355 355 356 355 356 357 357 355 355 355 356 358 357 354 355 351 351 350 347
330 332 331 333 334 337 339 339 341 342 341 342 336 336 340 340 344 340 343 344 350 345 335 336 336 335 335 335 336 336 335 336 337 337 338 339 341 341 342 345 347 349 350 350 350 351 353 355 355 356 356 356 356 357 356 356 356 352 353 355 353 357 356 359 356 354 354 354 355 356 359 358 356 355 355 356 356 357 356 355 355 355 356 356 357 356 360 359 357 359 360 359 355 354 353 351 350
332 332 332 332 334 337 339 338 339 341 341 340 333 335 337 342 340 328 344 346 347 340 334 335 334 333 334 335 335 335 335 335 336 337 338 339 340 339 341 344 345 348 350 350 350 351 354 353 354 355 355 358 356 356 355 354 357 353 353 356 358 357 357 356 356 354 355 355 355 357 358 359 356 356 355 358 357 356 355 359 355 357 357 358 360 357 360 360 362 362 362 362 355 351 351 353 351
332 331 332 335 337 337 339 339 340 341 337 340 338 336 340 340 340 330 342 348 349 334 333 333 332 331 333 334 334 335 334 335 336 336 335 336 336 338 341 342 344 347 349 350 351 352 353 353 354 355 356 356 356 355 357 357 357 356 355 356 357 356 357 355 354 354 354 354 355 356 356 357 357 357 357 357 357 355 355 358 354 354 354 356 361 360 360 361 363 364 365 364 356 357 357 356 349
330 330 324 328 332 329 335 336 338 340 336 341 341 334 331 333 332 342 344 347 345 333 331 331 331 331 332 333 333 333 333 334 334 334 336 336 337 339 340 344 345 345 348 351 352 353 352 354 354 356 356 357 354 353 353 356 356 356 355 353 353 356 356 354 354 354 353 354 355 354 355 357 359 358 358 358 362 357 357 356 354 355 355 357 360 362 361 360 360 362 360 364 361 357 357 350 353
330 327 326 325 324 326 335 338 341 338 337 341 339 315 321 331 338 342 344 345 338 331 329 330 329 330 330 330 331 331 332 332 331 333 334 336 336 339 340 344 346 345 348 350 352 352 355 356 356 355 355 354 353 354 354 355 355 355 355 353 355 354 354 354 354 354 355 356 355 355 356 359 360 362 361 361 362 359 356 355 354 355 355 358 363 361 357 358 359 359 359 357 363 357 353 353 346
320 327 326 321 319 319 332 331 337 334 340 339 337 317 321 331 338 343 344 347 335 328 329 328 328 329 328 328 329 329 330 331 330 331 334 335 336 337 341 344 344 347 349 349 349 350 352 354 356 354 356 353 356 354 356 355 355 352 352 351 353 353 353 352 354 354 355 357 357 359 360 361 360 361 361 362 364 361 358 356 356 355 357 360 360 362 359 358 358 356 360 357 354 357 351 360 346
321 315 310 321 319 319 328 335 334 328 336 340 332 317 321 332 337 343 345 346 345 327 329 327 328 327 327 327 327 328 329 331 331 333 335 336 336 337 341 341 345 347 348 348 349 350 350 351 354 356 357 355 354 356 356 355 354 351 351 355 354 354 353 350 353 354 353 356 361 358 360 361 360 359 361 363 361 360 359 356 357 359 361 361 358 360 363 357 358 359 359 356 353 353 354 347 352
318 313 312 315 319 320 322 329 332 334 332 338 331 320 327 331 339 341 344 347 345 333 328 327 327 326 326 326 327 328 327 328 330 332 333 334 336 335 339 341 345 346 347 348 348 348 348 352 354 354 354 353 354 354 354 353 353 351 352 355 355 352 352 354 353 354 356 357 361 359 360 362 361 360 362 362 361 358 360 358 359 361 364 361 361 359 359 361 359 359 357 364 357 356 353 349 354
309 315 310 316 317 318 317 328 334 334 332 327 331 325 326 331 337 338 342 344 345 337 328 327 327 326 326 326 327 327 327 327 328 331 332 334 335 335 339 347 345 345 347 348 349 348 348 350 351 352 353 353 353 354 355 355 354 351 350 351 353 352 353 354 354 354 355 356 360 360 361 362 364 363 362 362 360 360 361 358 358 361 362 360 358 358 357 358 356 361 357 359 359 356 352 351 348
307 309 309 314 321 318 318 320 327 331 332 328 327 325 326 332 337 339 341 345 342 337 338 327 327 327 326 326 327 327 327 327 329 330 332 333 335 337 339 342 343 344 346 347 348 348 348 349 351 355 353 354 354 356 356 356 356 354 353 353 352 353 353 353 354 353 354 354 358 361 362 363 365 363 363 365 362 360 360 360 359 361 361 360 357 356 356 357 360 359 359 359 363 358 354 354 351
312 313 311 316 314 317 316 325 331 331 328 326 325 321 324 331 334 339 342 340 338 335 336 332 332 328 326 326 327 328 327 328 330 331 332 333 335 336 338 340 342 344 345 346 348 347 347 350 352 352 353 355 356 357 356 354 354 353 353 356 355 352 351 352 353 354 354 354 360 360 361 363 365 364 363 363 363 359 361 358 359 362 362 361 359 356 354 357 357 357 357 360 358 361 360 356 355
313 314 313 315 315 318 324 325 329 333 327 324 326 325 324 329 331 334 339 338 335 336 331 335 334 333 326 326 327 327 327 328 331 330 330 333 335 336 338 339 340 342 344 346 346 346 348 349 350 350 353 355 354 354 352 351 351 351 353 353 352 355 354 354 355 355 355 358 362 361 363 363 364 364 364 364 360 367 362 358 359 360 359 356 359 356 357 358 360 361 361 363 359 356 354 355 355
311 310 312 314 317 316 323 324 330 331 324 321 324 323 325 327 330 334 337 334 330 334 333 333 336 336 334 326 326 327 328 330 331 327 328 332 334 336 338 338 343 341 343 344 343 344 348 349 349 352 354 354 353 353 353 352 352 352 352 352 354 355 356 355 354 355 357 361 362 362 363 363 365 363 364 363 365 365 361 359 361 360 361 359 359 361 360 364 362 361 363 359 360 355 353 355 360
311 309 311 312 315 320 325 327 329 328 327 320 324 322 323 326 331 334 335 334 335 333 332 337 335 336 334 332 327 328 328 328 329 326 328 331 334 336 337 339 341 343 343 343 342 343 346 346 349 352 353 353 353 354 353 352 353 354 353 354 355 356 359 358 357 360 360 361 363 363 363 363 364 362 363 364 365 365 363 360 362 361 362 365 360 357 360 361 360 360 357 357 355 356 355 358 353
306 307 307 307 318 316 314 324 326 326 324 321 322 320 322 328 329 330 329 337 335 336 337 338 340 339 337 334 332 329 328 327 328 326 328 331 333 335 336 338 340 341 342 342 342 343 346 347 349 351 352 353 353 355 357 352 356 354 354 355 356 356 355 359 359 361 359 360 361 364 365 364 364 362 364 365 363 364 364 362 362 362 361 362 360 357 358 356 358 358 358 360 357 350 349 349 359
308 310 310 312 317 318 319 320 322 324 325 326 323 318 318 323 323 325 329 333 336 337 336 333 337 342 339 338 339 339 329 327 328 326 328 330 332 334 336 338 340 340 341 342 342 344 348 347 350 350 351 353 353 356 356 353 359 356 354 355 358 357 357 354 353 354 358 360 360 360 363 365 364 362 363 363 364 364 363 363 361 362 361 361 362 358 358 360 360 360 360 359 356 353 348 348 352
304 311 311 313 318 319 320 321 318 315 315 321 319 306 309 319 323 323 324 329 332 336 334 333 336 339 340 335 337 339 337 329 329 326 328 330 332 333 336 339 339 340 341 343 344 345 349 348 351 351 351 353 352 352 355 355 352 352 350 350 350 349 349 348 347 350 353 358 357 361 364 365 364 362 361 362 364 367 365 365 363 363 364 363 361 359 358 360 360 358 358 359 359 358 355 345 347
302 305 315 315 317 319 318 316 316 308 306 317 322 307 304 315 315 317 321 322 328 332 333 332 334 335 339 337 337 338 334 329 330 328 331 331 333 333 336 338 340 340 342 344 345 346 349 350 352 352 352 353 351 353 357 357 352 353 350 351 350 349 348 349 351 353 355 358 359 359 362 364 363 363 363 363 364 365 364 365 363 363 363 363 367 363 360 360 360 359 361 361 360 362 359 348 345
303 313 314 316 318 317 317 317 316 311 317 319 321 315 306 306 315 320 322 323 326 328 330 333 333 334 337 339 338 341 340 330 331 329 330 331 333 334 335 338 340 342 343 344 345 347 348 349 351 352 354 354 352 355 356 355 353 352 352 353 353 352 351 351 353 352 357 359 356 359 361 362 363 362 361 363 363 364 365 365 364 362 362 363 363 360 359 360 361 362 361 363 365 366 353 350 353
308 314 316 314 318 316 317 316 314 313 313 308 313 318 309 307 317 325 325 320 322 325 327 331 331 334 336 340 339 342 339 337 332 329 330 331 334 334 336 337 340 343 344 344 344 348 350 350 352 353 353 354 352 357 356 355 357 354 352 353 352 354 354 355 358 357 356 359 355 357 358 360 362 362 360 365 362 365 368 364 363 363 363 362 367 361 362 362 364 359 360 357 357 358 362 360 358
313 315 315 313 316 316 317 317 315 315 311 305 310 315 306 305 315 317 324 319 322 325 328 331 334 335 337 338 340 341 340 337 343 330 330 332 335 334 336 338 339 342 343 346 345 351 351 350 353 351 353 354 352 356 357 357 357 357 354 352 350 352 355 356 355 353 354 356 356 355 358 359 360 361 361 363 363 364 365 364 363 363 361 363 366 361 358 358 362 361 360 358 358 360 358 358 361
316 314 312 311 312 312 312 310 310 308 300 303 313 314 311 301 311 314 314 318 323 328 331 334 336 337 340 343 340 339 339 339 345 343 339 335 337 336 337 338 338 340 343 344 347 350 351 350 353 350 352 355 353 355 356 357 356 356 354 353 351 351 351 353 353 353 355 357 357 357 357 358 359 360 360 361 362 364 364 365 363 364 361 365 364 360 359 359 363 359 360 360 361 358 360 362 361
312 308 305 306 306 309 308 308 310 299 295 305 312 313 315 302 308 317 322 324 325 326 328 330 333 337 337 338 338 337 341 344 342 346 341 343 337 336 337 337 338 339 340 341 348 350 351 350 353 350 351 355 352 355 356 358 356 357 353 355 350 353 351 353 354 355 356 358 356 355 358 358 358 360 358 359 360 361 362 362 364 363 363 361 359 361 359 360 360 360 358 359 359 358 359 367 361
308 305 305 300 299 300 298 301 297 295 293 305 315 315 310 309 314 318 321 324 325 327 330 335 334 335 336 337 338 340 344 346 345 343 345 341 342 336 336 336 338 337 338 339 347 350 351 350 353 350 350 354 352 353 356 356 356 356 353 355 351 354 351 354 353 356 358 358 356 355 358 357 358 357 357 358 358 358 360 360 360 359 359 361 360 361 363 364 360 358 360 357 360 358 358 359 358
305 302 303 297 295 294 291 295 298 298 303 311 314 317 308 313 318 323 322 325 327 330 331 335 335 335 337 336 337 343 346 345 343 344 343 344 342 345 337 336 339 338 338 339 347 349 351 351 353 352 350 355 355 353 356 356 355 355 354 356 355 355 354 354 355 354 357 358 359 358 358 358 359 356 357 357 358 358 361 362 365 358 360 361 363 361 363 363 367 361 359 357 358 360 358 359 356
304 310 305 303 299 297 291 293 290 293 298 309 316 309 303 306 310 326 326 329 331 332 334 338 338 339 339 339 343 342 344 345 344 342 344 341 344 343 346 340 339 340 338 339 345 349 352 351 352 353 351 355 356 354 356 355 355 356 355 356 357 357 356 355 357 356 357 357 360 360 360 359 360 358 356 359 360 360 360 363 365 363 364 367 365 364 367 365 367 364 361 359 359 360 360 360 358
308 308 308 301 298 305 296 298 297 298 299 302 307 306 311 311 321 325 328 330 331 333 333 335 335 339 339 339 341 342 343 344 345 344 345 346 345 346 347 346 339 341 339 339 344 349 351 352 352 354 352 355 357 356 356 355 355 355 356 356 356 359 359 358 358 359 357 358 358 359 360 359 361 361 358 363 360 360 360 362 365 364 365 365 365 365 365 364 364 365 364 364 362 363 359 361 357
303 305 298 301 308 306 302 306 305 305 305 301 310 307 312 318 317 322 326 327 327 329 330 332 334 337 338 338 338 336 341 341 344 346 344 346 345 346 348 348 343 341 340 339 344 348 351 354 352 354 354 355 357 358 357 357 355 354 356 356 356 358 358 356 356 357 357 357 357 359 360 361 360 360 364 365 361 361 362 361 363 364 364 364 364 364 365 364 362 362 362 361 360 361 359 358 359
302 299 301 305 308 308 306 297 297 298 297 300 308 304 306 307 302 320 320 321 324 326 327 328 331 333 332 334 338 340 341 342 347 346 349 351 353 349 348 348 348 351 342 340 345 348 352 356 353 354 356 354 357 359 358 358 355 354 355 356 356 357 357 356 356 356 354 355 356 357 357 359 359 361 364 362 362 364 362 367 361 363 365 364 364 365 365 365 364 361 363 362 364 363 362 361 361
303 301 307 299 295 293 301 300 290 293 296 299 304 307 306 309 306 314 317 319 320 323 325 325 326 329 330 332 338 339 340 340 342 345 347 350 350 346 343 348 352 355 348 348 348 351 352 356 356 356 356 356 357 359 360 359 358 356 356 356 356 356 356 356 355 355 352 352 355 354 354 356 359 360 360 358 360 361 362 363 361 364 364 363 364 362 364 366 365 361 364 363 364 361 359 360 360
308 307 303 306 301 298 298 297 300 300 297 298 297 303 301 309 313 318 318 320 320 321 322 323 324 326 328 329 332 335 336 339 341 344 345 346 349 349 349 346 350 350 349 352 354 348 348 348 353 357 358 358 357 358 359 358 358 356 356 356 356 356 356 355 354 353 351 351 352 353 353 355 355 359 358 361 359 359 361 361 361 363 363 363 364 363 364 366 363 361 362 363 363 361 360 360 361
299 299 298 301 302 305 300 301 297 298 298 298 297 295 303 310 318 318 320 320 320 321 321 322 323 324 326 328 330 334 338 340 341 341 344 344 348 351 351 350 348 349 350 351 353 351 349 351 355 359 358 358 359 357 358 359 358 356 356 354 355 355 355 355 354 354 351 350 351 352 351 354 355 354 357 360 357 357 359 359 359 359 360 360 361 361 363 365 362 360 362 362 360 362 361 361 361
299 298 297 298 297 295 292 292 302 300 302 295 298 296 305 315 324 320 320 319 321 322 322 322 322 323 323 326 329 332 334 339 338 341 343 345 344 348 353 352 351 350 352 352 351 348 350 352 354 354 351 349 351 350 348 351 355 357 354 355 355 355 355 355 353 353 351 350 350 352 351 351 353 353 355 356 357 358 358 358 356 356 355 358 359 359 362 362 363 361 363 363 362 360 360 360 359
Wind_Speed
9 7 7 7 5 4 2 3 1 0 0 2 2 1 1 3 2 5 4 6 7 5 11 5 3 8 5 9 15 11 15 2 2 5 5 4 11 14 10 12 12 11 10 8 6 6 7 9 11 11 11 11 11 10 10 11 11 11 12 12 12 12 13 13 13 13 13 14 14 14 14 15 15 15 15 14 13 14 11 11 12 12 12 12 13 14 17 17 14 15 18 18 20 19 19 18 15
6 6 5 5 3 1 1 1 1 1 1 2 1 0 1 1 3 2 7 7 4 3 10 8 12 14 14 10 9 17 15 12 8 10 7 11 14 11 11 15 14 13 10 8 7 6 6 8 11 12 12 13 12 11 10 11 11 11 12 12 12 12 12 12 12 13 13 14 14 14 15 15 15 14 14 15 12 13 13 13 12 12 12 13 13 15 16 15 14 15 16 17 17 17 17 18 17
5 7 5 4 2 2 0 1 1 1 1 3 0 2 1 2 6 6 4 7 5 6 7 10 14 11 13 14 15 11 5 8 18 15 11 14 14 10 14 14 13 12 12 8 8 7 6 8 11 12 13 13 12 11 11 10 10 12 12 12 12 12 12 12 12 13 13 14 14 14 15 15 14 14 14 13 13 13 13 13 13 12 12 13 14 14 14 16 15 16 17 16 16 16 16 16 16
6 7 6 6 2 2 2 1 2 1 1 1 1 2 3 3 5 7 7 11 2 6 7 11 9 5 19 17 13 20 11 9 10 15 11 11 8 15 15 15 14 12 11 8 9 7 6 9 11 12 12 13 12 11 11 10 12 12 12 12 12 12 12 12 12 13 13 14 14 15 14 14 14 13 13 13 13 14 14 13 13 13 12 13 13 14 14 15 15 15 16 15 15 16 16 16 15
4 3 4 4 1 1 1 1 1 1 3 1 2 1 3 4 6 6 5 8 4 3 10 12 10 7 11 11 6 5 8 12 12 8 9 9 13 14 15 15 13 12 10 11 9 8 7 13 12 13 13 13 12 11 12 12 12 12 12 12 12 12 12 11 12 13 13 14 14 14 13 14 14 13 13 13 14 14 14 13 12 12 12 13 13 13 14 15 15 15 16 15 15 16 16 15 14
3 3 3 1 2 2 2 2 1 3 3 2 2 2 5 5 4 6 3 4 5 5 8 10 10 11 10 10 7 10 13 9 11 11 12 14 18 16 16 14 13 12 11 9 9 7 7 13 13 13 13 13 12 12 12 12 13 12 12 13 12 11 11 11 12 13 13 14 14 14 13 13 14 14 14 15 14 13 13 14 13 12 12 13 13 13 14 15 15 15 15 15 15 16 15 14 13
4 3 3 4 2 0 1 3 4 3 4 2 2 1 6 4 4 3 5 9 5 11 14 16 19 16 12 9 12 9 10 14 11 12 11 17 17 16 15 13 13 13 13 10 8 8 9 13 13 13 13 13 13 12 12 13 13 13 12 12 12 11 11 11 12 13 14 14 14 14 14 14 14 14 15 15 15 13 13 14 13 13 13 13 13 13 13 14 14 15 15 15 15 15 14 12 12
5 1 3 2 0 1 1 2 4 3 2 5 2 3 5 7 5 3 2 7 9 8 12 11 11 14 14 9 11 12 14 9 16 17 18 16 18 16 13 13 13 13 12 10 8 7 14 14 13 13 14 13 12 12 12 13 13 13 12 12 12 12 11 11 12 13 14 14 14 14 14 14 14 14 15 15 14 13 12 13 13 13 13 14 14 14 14 15 14 14 15 15 15 13 11 10 9
6 3 1 4 1 0 2 2 3 3 3 2 1 7 4 6 2 3 5 3 7 9 16 19 14 16 10 14 10 11 13 17 18 20 18 19 18 16 11 12 13 12 12 10 9 8 8 14 13 14 13 12 12 12 12 13 13 13 12 12 12 12 12 12 13 13 14 14 14 14 14 14 14 15 16 16 14 12 12 13 13 13 13 14 15 13 14 15 14 13 15 15 14 12 11 9 7
2 1 0 1 1 3 3 2 3 2 2 2 6 3 4 2 2 3 8 6 8 12 13 15 11 18 15 15 13 11 12 19 20 18 17 15 16 17 15 14 15 16 12 10 8 7 6 13 13 13 13 12 12 12 12 13 13 12 13 12 13 13 13 13 13 14 14 14 14 15 14 13 14 15 17 14 13 13 13 13 14 13 14 14 14 14 14 15 14 14 14 13 12 10 9 8 7
3 4 1 2 0 2 2 3 4 2 1 3 4 1 4 2 3 1 4 1 5 15 20 19 16 18 15 12 10 10 17 17 19 20 18 17 17 18 15 14 14 14 14 13 10 7 7 7 14 13 12 13 12 12 12 12 13 13 13 13 13 13 13 13 13 13 13 14 14 14 14 15 15 16 16 14 13 12 13 14 14 14 14 14 14 15 16 15 15 16 15 13 11 9 9 7 9
0 2 3 1 2 2 2 3 2 2 2 5 1 2 3 3 4 3 2 7 10 16 15 9 11 17 14 10 8 13 17 17 17 17 17 17 14 16 16 12 14 14 14 13 11 8 7 7 7 12 13 13 13 13 12 12 13 13 14 14 14 13 13 13 13 13 14 14 14 15 15 14 15 15 15 15 14 11 13 14 14 14 14 14 14 16 16 15 16 15 14 13 10 9 9 10 12
2 1 3 1 2 2 2 3 3 2 2 4 3 4 2 2 4 7 4 3 2 15 9 11 19 12 12 11 8 17 19 17 16 17 17 14 15 14 14 14 15 15 13 12 11 10 9 6 6 6 9 14 13 13 12 12 13 13 14 14 14 13 13 13 13 14 14 14 14 15 15 14 15 15 15 15 14 15 14 10 13 14 14 14 15 16 17 16 16 16 14 12 9 9 9 10 12
4 4 3 1 1 3 3 2 3 6 2 5 4 1 3 1 1 5 7 4 3 9 15 16 14 15 16 12 9 10 13 17 19 18 14 15 14 15 16 14 15 14 14 12 11 10 8 7 6 6 7 6 7 10 11 12 13 13 14 13 13 14 14 13 13 13 13 14 14 15 14 14 14 14 14 14 14 16 13 8 10 15 15 13 14 15 16 17 16 16 13 9 7 7 7 9 12
5 2 2 1 2 2 2 2 6 3 3 5 4 5 1 3 2 2 5 5 3 7 14 12 15 14 12 16 12 12 15 19 17 17 16 15 16 15 16 13 14 13 12 11 10 9 8 7 7 6 5 6 7 6 3 8 14 14 14 13 13 15 15 14 14 13 13 13 14 14 14 15 14 14 14 14 14 18 14 7 8 12 15 14 14 14 15 16 16 13 11 9 8 7 6 9 10
4 4 1 0 3 2 1 1 4 3 2 3 3 8 5 3 3 1 2 2 3 1 14 11 9 5 18 11 17 20 20 19 16 16 15 17 15 14 14 14 12 11 10 10 9 8 8 8 7 6 5 5 5 6 6 5 10 13 13 13 14 14 14 14 14 14 14 14 14 14 14 11 11 10 14 11 14 18 17 6 5 9 12 13 13 14 15 14 11 11 10 9 7 7 7 8 9
5 4 1 1 4 3 2 1 7 5 3 2 4 6 3 2 2 1 1 4 2 4 14 13 12 13 15 14 20 23 20 16 16 17 15 12 11 11 10 9 9 9 9 9 7 7 8 8 7 6 5 5 5 6 6 6 8 12 11 12 13 14 13 14 14 14 13 12 12 13 11 6 4 4 6 6 11 9 19 15 7 6 8 12 13 12 12 12 11 10 9 8 7 7 7 8 8
3 2 1 2 2 3 1 1 3 5 7 6 5 4 3 4 1 2 1 5 4 4 2 15 17 12 15 18 20 22 20 18 17 17 14 11 9 10 9 9 9 9 8 7 7 8 7 6 7 7 6 5 4 5 5 5 5 7 6 4 5 8 11 11 8 6 8 5 10 7 5 5 4 3 4 7 3 7 11 19 15 8 6 9 12 12 12 12 11 10 10 8 8 7 7 2 3
4 3 3 3 1 2 1 1 2 4 6 6 3 4 3 3 4 7 5 2 2 5 7 16 16 18 19 20 21 22 21 18 17 16 15 14 11 11 10 8 8 9 8 7 6 8 6 6 6 7 7 7 6 3 5 6 7 5 5 4 5 7 8 6 5 6 4 5 4 4 4 5 4 3 4 5 5 11 11 15 17 13 7 8 10 12 13 13 13 12 11 10 8 8 3 2 2
2 2 2 3 2 2 2 2 4 1 8 7 5 7 9 3 4 1 4 5 9 4 8 17 17 21 20 20 20 22 21 19 17 17 16 13 11 12 11 11 10 8 9 8 8 7 7 5 5 5 7 6 4 4 5 5 5 5 5 5 4 5 5 4 5 4 3 4 4 4 5 4 3 4 8 12 9 4 8 13 16 16 12 9 9 6 8 9 10 10 9 9 6 3 2 1 1
2 2 3 4 6 3 3 4 5 6 5 6 5 8 7 2 3 3 7 7 7 9 11 18 20 20 21 19 19 19 19 20 18 17 18 15 12 10 11 11 9 9 8 8 6 7 8 7 5 5 5 5 5 4 4 4 4 5 5 4 5 4 4 4 5 4 2 4 3 3 4 4 4 4 3 5 3 4 5 4 5 5 3 3 5 2 2 2 3 1 1 2 1 1 1 3 2
6 2 2 7 8 3 4 5 8 7 3 6 4 8 7 6 5 7 5 3 3 2 17 18 19 19 20 19 18 17 18 19 19 17 17 17 16 13 12 10 10 8 9 8 8 8 7 7 6 4 3 4 5 4 4 4 4 5 5 5 4 4 5 4 5 3 4 5 2 1 3 4 4 3 4 4 3 4 5 4 5 3 2 3 2 2 1 1 1 0 0 1 2 2 2 3 3
2 3 3 5 7 7 6 8 8 9 7 6 5 3 4 4 5 4 5 4 3 6 19 18 17 18 17 16 17 17 17 17 15 14 15 16 16 15 13 11 10 9 8 8 8 7 8 8 6 5 3 4 4 4 4 3 3 3 4 5 5 4 4 4 4 4 4 4 3 2 4 5 5 3 3 3 4 4 4 5 5 4 3 2 2 2 3 3 3 3 2 3 3 3 4 4 3
6 3 7 6 8 11 12 9 9 8 9 7 3 2 4 7 7 1 4 3 5 5 6 18 18 16 16 16 16 17 16 16 16 14 14 15 16 16 13 12 10 8 8 9 8 8 8 8 7 5 5 3 3 5 4 3 2 3 3 4 4 4 5 4 4 4 5 4 3 3 4 5 5 5 2 2 4 4 4 5 5 5 4 4 4 3 4 5 4 4 4 5 5 6 7 7 6
2 0 5 6 4 7 11 11 8 11 9 6 5 4 4 3 4 5 4 4 4 2 6 18 18 16 14 14 14 15 14 14 15 15 12 12 14 15 15 11 12 9 10 9 9 9 10 8 8 7 5 4 3 4 4 3 3 2 2 3 3 5 5 4 3 6 5 4 4 3 3 5 4 4 3 2 4 4 4 5 5 5 5 5 4 3 3 4 3 4 5 5 6 5 2 4 5
5 6 3 10 6 7 13 11 8 11 6 7 8 4 2 3 0 3 2 1 0 8 15 18 16 15 14 14 14 13 13 13 15 14 14 12 13 14 13 13 13 12 10 10 10 8 9 9 9 9 7 5 4 3 2 4 4 4 1 2 1 3 4 5 5 5 4 4 5 4 3 4 4 4 4 3 3 3 5 6 4 4 5 4 3 4 3 2 2 2 1 1 2 3 3 3 4
11 8 10 8 10 10 11 13 10 8 6 7 9 3 2 3 1 4 2 2 2 7 18 17 15 15 14 13 13 13 13 13 15 12 12 12 13 12 12 13 12 13 12 11 9 8 9 10 9 9 8 7 4 3 2 2 2 5 5 3 3 3 4 6 5 5 4 4 4 3 4 4 4 4 4 3 3 2 3 3 5 4 3 2 0 3 1 2 1 2 2 1 3 3 3 3 4
8 6 8 12 8 4 9 8 11 8 6 6 10 7 4 4 2 4 2 2 2 10 18 17 15 14 13 13 13 11 10 12 11 12 15 15 10 10 13 11 11 14 14 12 9 8 10 10 10 9 8 7 6 4 3 1 1 0 3 4 3 4 4 3 4 5 5 4 3 3 4 3 3 3 2 2 3 4 3 3 5 4 3 2 0 2 2 1 2 2 2 3 3 4 5 4 5
11 16 4 6 8 6 6 10 8 4 6 9 9 10 4 4 2 0 2 2 1 10 16 17 16 14 14 14 12 9 10 10 8 11 13 12 11 12 13 12 11 11 9 14 12 12 12 11 10 10 9 8 7 7 6 3 2 1 2 3 2 3 4 4 3 3 3 4 4 4 4 3 2 4 3 2 3 3 4 4 4 4 4 3 2 3 3 2 2 2 2 0 1 1 2 4 3
12 11 10 9 3 2 6 2 6 7 6 10 6 6 3 3 4 4 5 2 4 10 14 15 13 13 13 12 11 8 11 9 6 12 9 12 10 13 14 14 13 9 10 10 14 14 11 10 8 8 9 9 8 7 6 5 4 3 3 3 2 1 2 3 3 3 2 3 4 4 4 3 3 2 2 2 2 4 4 4 4 4 3 3 2 3 3 1 1 1 2 4 4 2 1 2 3
6 7 13 5 7 2 1 3 6 6 5 10 4 5 4 4 5 4 5 2 5 11 12 12 13 12 12 11 10 9 11 8 8 8 13 11 11 12 15 15 11 11 10 11 11 13 12 12 10 9 10 9 9 9 8 6 5 4 4 4 4 3 2 3 3 4 4 3 5 5 4 4 4 3 2 2 2 4 5 5 5 5 4 3 3 3 3 1 1 1 1 2 2 2 2 1 3
4 4 6 10 6 4 5 2 4 3 5 7 2 3 6 6 6 4 4 3 1 9 8 12 12 11 12 11 8 10 8 10 9 10 12 11 9 12 15 14 13 13 12 11 10 11 12 10 12 12 13 12 11 10 8 9 8 5 4 3 4 4 5 6 5 4 4 4 4 5 4 3 3 2 1 1 2 2 5 5 5 5 5 4 4 2 1 3 2 0 0 0 2 3 2 4 3
4 3 3 3 8 6 4 1 3 5 1 5 4 3 7 3 5 5 4 3 3 5 9 11 12 15 12 11 6 10 9 9 10 10 11 9 9 10 13 13 14 13 11 10 11 10 10 10 11 12 11 12 10 11 13 10 9 7 4 2 2 1 2 2 3 3 4 4 4 5 4 4 4 4 3 2 2 2 2 4 5 5 4 4 3 2 2 3 1 1 0 1 1 2 2 1 1
5 7 4 7 8 8 3 4 3 6 13 7 7 1 4 5 8 6 5 0 1 0 8 9 11 12 12 10 8 9 10 7 10 10 12 7 9 10 12 13 15 13 11 11 10 11 10 11 10 9 9 8 7 8 8 10 13 11 6 4 3 2 2 2 2 3 4 3 4 4 4 3 4 4 3 3 2 2 1 3 3 3 4 5 4 3 2 1 0 2 1 1 0 1 1 1 3
9 8 7 7 6 12 9 9 8 9 6 6 7 1 3 7 7 7 5 3 2 2 3 7 9 11 13 10 9 9 10 5 10 11 10 7 11 12 12 14 13 13 10 11 11 7 9 10 8 8 9 8 7 7 6 7 11 12 11 10 8 5 3 3 3 3 3 2 4 4 3 3 3 3 3 3 3 2 2 2 4 4 4 4 4 2 1 0 0 1 2 1 1 1 1 2 1
8 12 8 12 10 5 8 6 8 13 9 5 9 4 3 7 8 4 3 5 3 4 3 6 2 11 12 9 10 10 9 7 9 11 11 6 10 11 11 11 12 12 11 10 11 9 9 10 8 8 7 8 6 6 6 6 8 8 7 6 8 7 4 3 3 3 4 4 3 4 4 3 3 3 3 2 2 2 2 4 4 4 4 4 3 3 2 2 3 1 3 2 0 1 2 1 3
11 8 10 15 8 8 8 10 12 9 6 2 3 6 6 5 6 8 3 5 3 1 3 2 6 3 12 9 12 10 8 8 10 12 11 8 12 11 11 11 12 11 11 10 10 10 9 11 11 9 7 7 7 6 6 6 7 7 6 7 6 6 8 7 6 6 5 5 4 4 4 4 3 3 3 2 2 3 3 4 4 3 4 4 3 3 3 3 3 2 2 1 1 1 1 2 2
11 10 5 13 13 10 12 12 15 7 4 7 8 5 5 7 3 4 5 5 3 5 5 6 4 7 5 10 12 11 8 8 12 12 10 10 11 12 11 10 11 13 11 11 11 10 10 12 11 9 8 7 6 6 7 5 4 7 7 6 5 5 5 5 4 5 7 6 6 5 4 4 4 4 3 2 2 3 4 4 3 4 4 4 3 3 2 3 1 1 2 1 1 1 0 2 0
10 8 1 9 6 10 9 12 16 8 5 6 8 7 5 5 4 4 5 3 5 3 1 2 1 3 3 5 12 9 11 8 11 14 10 10 13 14 11 10 12 13 12 11 11 9 11 11 9 9 9 8 6 6 7 5 4 8 7 6 7 5 3 3 2 3 4 6 6 5 5 4 4 4 4 3 2 3 3 3 3 5 4 4 3 3 2 3 2 3 2 1 0 1 1 2 3
8 3 5 6 13 10 5 9 11 12 4 7 7 10 4 3 4 5 6 4 4 1 0 3 4 2 2 3 3 8 13 10 11 15 9 12 12 12 11 10 13 12 10 10 10 10 10 9 9 10 10 8 7 5 5 6 5 6 7 9 7 7 5 3 3 2 3 4 4 3 3 5 4 4 4 3 2 2 3 3 3 4 5 4 4 3 3 3 3 3 2 1 1 1 1 2 3
7 8 5 10 13 12 14 11 9 7 3 12 11 9 5 1 4 2 1 3 7 4 2 2 4 1 1 6 3 7 11 11 10 16 7 13 12 13 11 12 13 12 10 10 10 9 8 11 10 11 9 9 7 6 6 6 5 5 7 6 6 5 4 4 4 2 3 3 3 3 4 4 4 4 4 4 3 3 3 4 4 3 3 3 3 4 4 3 3 3 2 1 2 2 3 1 1
5 6 6 6 17 15 14 16 15 6 4 8 12 4 3 6 4 2 2 2 3 5 4 3 4 4 3 3 7 8 3 13 9 14 8 12 12 11 11 13 13 11 11 10 10 9 9 9 9 10 8 7 7 6 6 5 6 7 8 7 7 6 6 5 6 7 5 6 6 4 3 4 4 3 4 3 3 3 3 4 4 3 3 3 4 3 3 1 3 3 3 3 3 4 2 2 1
6 5 2 2 12 19 15 16 10 7 8 11 10 9 3 4 8 7 4 2 2 3 6 7 5 3 3 5 6 5 5 13 10 12 7 13 12 12 11 12 13 12 11 10 9 8 10 9 8 9 8 7 8 6 6 6 5 5 7 7 8 8 7 5 5 5 5 6 5 5 5 4 4 4 5 3 4 3 3 4 4 4 4 3 2 3 3 3 4 3 3 3 3 1 1 2 3
2 3 12 3 16 15 17 18 13 7 4 10 7 5 7 2 2 6 11 7 5 5 4 5 4 4 7 7 6 1 6 11 9 14 8 12 14 14 12 12 13 13 12 10 10 8 12 10 8 8 7 7 8 5 6 6 6 5 5 6 8 7 8 7 6 5 4 5 6 6 5 4 4 3 4 3 4 3 3 3 4 4 4 4 3 4 4 3 3 2 4 2 0 1 3 3 1
3 7 10 12 18 13 17 15 9 7 10 8 5 12 6 2 2 4 8 11 8 7 7 8 8 9 8 6 6 0 1 4 9 12 10 12 14 13 11 10 12 13 13 10 11 8 11 10 8 7 8 7 8 6 7 6 5 6 6 5 5 6 6 7 6 6 6 5 6 5 6 5 4 4 4 3 4 3 3 3 3 4 4 4 3 4 3 3 4 4 3 1 1 0 1 1 1
10 10 8 4 10 12 12 3 2 5 9 11 11 9 6 3 2 3 3 5 8 8 8 7 10 10 7 6 6 1 4 2 5 12 11 12 14 13 11 10 11 12 13 9 11 11 11 11 8 9 7 8 9 7 8 7 5 6 6 5 6 5 5 6 6 6 6 5 6 5 5 5 5 5 4 3 5 3 4 3 3 4 4 4 4 4 4 3 3 4 4 3 3 1 0 0 0
3 8 12 8 11 12 7 2 1 2 3 8 17 14 9 4 5 6 6 6 6 6 3 3 5 6 5 1 4 4 2 5 1 6 0 14 13 14 12 12 9 12 12 10 11 13 11 11 10 10 8 8 9 8 9 8 7 6 6 5 7 6 7 6 7 6 5 4 5 5 6 6 5 5 5 5 4 4 4 3 4 4 4 3 4 4 3 3 3 4 4 4 3 3 1 1 0
11 3 5 3 5 4 4 3 2 1 2 2 14 12 8 7 3 2 6 3 8 8 10 10 7 7 4 4 6 6 4 3 3 3 5 3 13 13 13 11 9 12 14 11 12 12 11 11 10 11 8 8 10 8 9 8 8 7 6 5 7 6 7 6 8 7 7 6 6 6 5 5 5 4 5 5 5 5 4 4 4 4 4 3 4 4 4 4 4 4 3 3 3 3 2 1 0
6 3 2 4 0 2 2 3 6 3 4 1 16 13 9 5 3 12 11 9 8 6 4 6 7 3 5 4 7 6 4 2 3 3 1 4 3 12 12 13 6 11 14 11 14 13 12 11 11 12 9 8 10 9 9 9 7 7 7 5 7 6 7 7 7 7 6 6 6 6 5 6 5 5 5 6 6 6 6 6 5 5 4 4 4 4 3 4 5 5 4 3 2 3 2 2 1
2 3 1 6 2 4 1 3 1 2 5 8 10 16 7 3 4 5 11 9 8 8 8 8 12 9 7 9 9 6 4 3 3 4 3 3 4 0 11 12 7 10 14 12 14 12 11 12 11 11 11 8 9 10 9 9 8 7 7 6 7 6 6 7 7 7 6 7 6 6 6 6 5 6 5 6 6 6 7 6 4 6 5 4 4 4 4 3 3 5 5 4 4 3 3 3 3
5 1 2 1 2 3 4 3 5 6 2 5 10 7 6 9 5 8 5 10 10 9 7 5 7 7 7 9 6 4 2 1 2 4 4 4 3 2 2 5 9 9 14 12 12 12 12 13 11 11 11 8 10 11 9 9 8 7 7 6 5 6 6 7 7 7 6 6 6 7 6 5 5 5 6 6 5 6 6 5 4 5 5 4 4 4 3 3 2 5 5 5 5 5 4 4 3
7 3 2 2 5 3 6 5 4 7 7 4 4 3 6 6 6 9 7 11 12 11 9 7 6 5 5 4 4 3 3 2 2 3 3 2 2 1 2 2 6 9 13 11 12 12 13 13 12 11 13 10 10 11 9 9 6 6 7 6 6 6 5 5 6 6 6 6 5 7 6 6 6 5 6 4 4 7 6 5 4 4 4 4 3 3 3 3 2 3 4 3 4 4 4 4 4
1 4 5 5 5 6 3 3 6 5 10 3 3 8 7 6 11 8 6 7 11 10 9 6 6 8 6 5 6 4 5 5 5 4 4 2 1 2 3 3 3 8 11 11 10 13 14 13 13 12 11 9 9 10 10 8 6 6 7 6 6 6 7 6 7 6 7 6 5 5 6 6 6 6 5 4 5 5 6 5 4 4 4 4 4 3 3 3 3 2 3 2 3 3 4 4 4
2 1 3 9 5 2 0 1 3 1 6 2 4 11 10 5 5 1 9 7 3 9 10 10 8 9 10 8 4 5 4 3 1 5 4 5 3 5 8 6 7 8 1 8 6 15 13 13 16 14 12 12 9 9 10 8 8 7 6 7 6 7 7 6 6 6 6 7 6 5 5 5 6 6 5 5 5 4 5 6 4 4 4 4 4 4 3 4 3 3 3 3 3 2 2 3 4
1 1 3 1 2 4 0 1 3 1 6 5 4 5 5 4 6 4 7 11 8 12 11 11 10 10 10 10 10 9 7 6 7 7 6 5 4 7 3 2 3 1 3 3 7 4 5 11 16 16 14 14 11 9 8 8 9 7 6 7 7 7 6 6 5 6 5 7 7 7 6 5 4 5 6 5 5 5 5 5 4 4 4 5 4 4 3 4 4 4 3 4 3 3 3 2 3
3 5 6 2 2 4 1 3 2 5 5 5 3 1 0 3 1 5 3 8 11 13 12 11 11 11 9 9 8 8 7 6 6 6 7 8 6 3 5 2 7 8 9 5 4 4 9 7 4 0 10 12 11 10 8 10 9 8 8 7 6 6 6 7 6 7 7 6 6 8 6 6 7 4 5 5 7 6 5 5 5 5 5 5 5 5 4 4 4 4 3 5 3 3 3 3 3
1 2 4 4 2 0 1 2 5 7 8 8 9 3 1 1 2 3 9 8 11 11 11 10 10 11 11 10 8 7 4 4 6 8 8 8 4 2 4 9 9 6 5 6 5 7 6 5 5 4 5 0 5 4 7 9 8 8 8 10 9 7 7 7 6 7 9 6 6 7 7 6 6 5 5 5 6 7 6 6 5 4 6 5 5 5 5 5 5 5 4 4 4 3 4 3 3
4 6 6 5 3 5 5 6 2 3 10 9 10 6 3 2 3 6 3 8 11 11 14 11 12 12 10 9 9 8 7 6 8 7 9 7 4 3 4 7 7 6 0 5 3 5 3 5 7 10 11 10 6 4 2 9 4 9 7 10 10 8 7 6 8 6 9 8 7 7 7 5 8 7 6 6 6 5 6 6 5 5 4 6 6 6 6 5 5 5 4 4 4 5 4 4 3
Wind_Direction
175 176 188 190 197 229 246 212 38 274 222 276 330 56 153 88 255 136 154 171 202 181 200 203 120 60 79 108 111 92 27 143 151 148 166 139 137 153 168 141 141 141 139 141 147 148 143 137 142 139 134 125 121 115 111 106 102 95 97 94 92 91 92 91 90 91 91 90 91 93 97 99 97 94 99 99 103 107 107 102 95 91 92 95 97 103 105 103 102 106 112 115 122 123 122 122 114
176 190 189 195 205 152 245 234 20 293 88 306 194 85 87 179 119 207 179 195 205 174 180 126 92 92 97 116 117 65 28 14 77 103 78 121 134 150 161 142 145 143 137 135 140 138 134 142 145 144 138 131 124 122 120 115 105 104 103 98 97 98 95 94 93 91 91 90 90 95 101 100 100 106 102 102 104 110 111 106 100 97 92 90 89 95 100 106 107 104 102 105 107 109 110 115 126
177 179 188 184 257 232 82 335 332 331 323 254 266 207 335 126 163 232 220 205 206 155 112 82 82 85 74 67 41 83 69 42 90 86 104 134 137 160 151 145 143 137 134 140 140 136 141 150 148 144 136 128 128 129 126 116 110 111 105 103 101 98 98 97 96 95 94 94 95 97 98 97 99 97 97 100 103 101 99 100 101 98 95 94 98 103 104 104 106 104 102 105 105 107 109 113 114
192 192 181 167 207 202 7 36 286 343 262 258 301 247 158 182 201 199 231 249 205 96 110 87 73 66 95 80 96 88 93 71 70 118 124 153 151 148 148 145 137 133 140 140 137 143 147 149 147 141 133 130 132 133 127 120 117 109 106 105 101 96 96 98 98 99 101 99 97 97 98 99 98 96 95 98 97 98 100 102 105 104 102 102 100 98 101 103 104 101 104 105 106 106 110 113 113
249 291 262 222 166 46 138 212 206 243 233 190 231 209 198 210 207 196 236 235 102 76 79 97 103 89 83 102 117 92 112 105 101 102 122 130 140 143 143 135 137 143 139 135 139 142 150 150 146 139 136 137 138 135 128 121 115 109 106 101 98 94 97 101 101 99 101 101 98 97 97 98 98 98 101 100 98 95 101 103 101 101 105 106 102 102 102 100 99 103 105 107 107 109 111 113 111
246 255 236 213 280 134 94 263 238 248 242 326 201 239 201 213 206 220 245 146 143 123 123 103 92 96 74 63 77 106 140 121 130 112 129 136 141 143 136 140 142 135 129 127 134 143 147 149 141 138 139 140 139 133 125 118 108 103 104 98 93 99 101 103 105 102 103 102 100 99 99 101 99 99 97 94 95 98 99 98 99 102 102 105 108 105 100 99 102 107 109 109 108 111 113 112 108
188 169 234 155 87 187 277 326 290 281 270 204 213 229 215 229 252 140 161 136 95 78 84 100 107 106 95 109 103 92 95 119 126 129 134 138 135 137 141 136 131 124 121 127 134 137 147 145 143 144 144 143 137 128 121 114 109 104 98 105 106 104 105 105 103 103 103 101 103 105 105 101 100 100 97 94 97 97 99 101 105 105 105 106 106 101 103 104 105 109 111 110 111 113 112 108 113
239 191 344 99 40 30 211 224 252 205 278 197 257 210 2 345 45 317 47 132 120 118 127 114 92 90 89 101 105 112 117 104 118 127 128 131 134 137 132 134 129 123 123 128 133 140 146 148 149 148 144 138 129 123 118 111 106 106 113 110 108 110 111 108 105 103 102 102 103 105 105 103 102 99 98 96 95 97 98 102 106 107 107 104 101 106 107 105 105 111 112 112 115 115 111 109 112
217 161 306 81 343 220 257 248 271 204 262 258 335 56 84 150 1 109 244 208 125 101 96 105 114 96 108 99 88 104 103 118 120 127 132 138 140 132 133 137 129 123 124 127 134 140 141 151 149 146 139 132 126 123 116 109 113 119 115 110 111 111 109 110 110 106 104 104 107 107 103 103 102 101 95 98 102 104 109 110 107 106 107 106 106 105 109 107 108 112 113 115 118 112 110 107 100
245 244 76 108 45 290 275 232 235 209 247 57 58 197 169 200 129 81 282 114 116 110 97 84 91 102 114 102 107 104 119 124 128 130 137 134 127 129 137 135 126 128 126 128 133 136 148 147 148 141 135 129 127 123 118 120 121 115 113 113 111 109 107 108 110 108 107 109 111 108 105 103 101 99 98 99 102 104 106 105 106 107 105 106 106 110 109 111 119 118 113 113 110 108 106 105 97
197 52 84 79 121 261 248 297 237 309 313 69 130 230 71 296 122 65 287 263 48 99 103 108 102 112 114 97 89 112 121 130 134 133 136 137 136 138 135 129 129 129 130 133 136 143 143 145 145 138 133 129 127 124 123 124 120 118 118 115 110 105 105 107 109 108 107 108 108 106 104 103 100 99 96 96 93 98 100 100 105 107 106 104 105 110 111 116 117 116 118 118 112 109 105 101 94
240 53 49 13 264 246 242 247 225 276 12 65 110 347 226 126 59 87 328 118 111 111 121 137 115 118 99 104 119 131 135 136 132 134 137 139 136 133 125 126 129 131 134 135 140 141 144 150 140 139 133 129 128 128 128 125 122 119 113 111 110 110 112 114 112 110 110 110 108 104 101 97 98 100 103 103 105 102 95 95 100 103 105 107 110 108 116 120 117 117 118 116 116 116 112 101 90
114 118 87 255 244 245 294 236 230 137 38 110 170 237 288 221 114 139 181 201 331 129 112 107 121 122 111 118 149 139 141 137 135 136 142 141 132 126 125 129 133 136 136 136 141 144 144 140 141 134 136 132 132 130 128 126 121 116 112 112 113 115 115 116 116 114 112 110 107 103 102 100 102 101 100 101 97 90 88 98 100 100 99 105 111 118 119 116 117 120 123 123 120 111 102 96 97
112 151 134 274 45 286 292 264 181 155 170 130 217 68 359 43 215 139 163 177 282 106 119 129 123 118 109 124 139 133 133 138 136 140 138 130 126 125 128 133 134 133 138 143 143 144 144 141 132 128 126 124 119 123 132 127 118 114 112 113 117 118 117 115 115 113 112 111 110 109 106 106 107 104 101 98 97 94 96 97 103 109 105 106 109 108 110 115 120 121 123 122 120 116 109 104 102
110 143 108 280 268 261 226 232 173 159 151 169 123 109 154 283 192 184 173 147 177 139 132 128 123 125 152 147 149 146 143 143 144 139 133 130 127 127 129 127 129 135 138 138 141 144 142 136 128 128 129 118 116 117 121 124 120 119 117 118 119 119 118 119 121 119 118 117 114 113 113 111 109 107 106 104 101 99 95 74 75 87 102 105 105 105 109 115 118 120 126 130 133 131 126 109 104
100 108 63 187 293 287 287 219 138 162 153 192 114 138 203 235 219 83 206 356 113 21 127 127 170 116 143 139 142 138 142 143 138 131 130 129 128 127 126 129 133 132 133 141 148 149 138 128 132 134 133 134 137 133 127 124 122 120 118 120 121 117 116 119 121 120 119 119 118 113 109 104 104 107 109 108 105 103 104 91 68 85 99 110 111 112 115 116 118 125 126 132 140 144 124 109 107
100 89 79 216 277 352 262 90 145 181 128 140 151 187 174 107 18 35 290 15 81 111 137 156 112 133 133 139 134 137 141 134 134 132 127 128 129 131 134 134 134 137 147 153 148 135 126 131 136 137 142 143 142 131 121 121 130 116 118 120 115 115 117 120 121 116 114 115 113 111 105 92 90 92 92 95 103 111 120 123 99 84 106 114 118 122 125 126 127 127 130 138 141 126 119 116 111
130 82 116 290 233 286 238 185 206 112 136 146 173 196 126 105 54 14 24 32 6 10 120 116 130 128 128 128 134 134 133 136 137 133 134 132 140 141 135 134 139 145 143 137 134 130 133 142 147 145 146 142 130 125 125 118 102 93 82 70 101 116 118 109 106 103 101 81 95 86 81 93 89 98 105 109 109 106 113 119 125 122 119 123 130 135 134 130 130 127 132 136 133 130 121 94 96
123 164 122 258 254 232 281 109 191 143 133 142 156 138 83 55 107 24 32 34 358 50 100 135 122 122 124 133 135 134 137 134 136 134 138 141 148 139 131 132 135 131 133 136 137 140 142 146 148 141 135 133 138 143 125 121 117 119 114 115 118 123 118 107 95 91 81 91 93 83 88 85 91 93 107 116 115 117 115 114 118 126 129 122 122 126 130 133 133 136 143 146 141 133 100 66 61
323 120 174 241 228 219 146 124 150 75 132 148 141 90 86 267 82 274 104 93 318 213 173 130 131 131 137 138 142 140 141 138 138 141 141 146 147 131 132 134 135 139 141 146 144 139 140 143 141 134 133 137 127 125 118 111 116 115 107 117 109 92 100 100 89 85 71 98 111 102 105 103 95 107 128 121 109 86 110 113 113 117 119 110 101 88 107 116 124 133 138 140 129 67 104 120 117
257 83 193 212 209 151 264 173 169 126 135 135 120 117 92 74 81 111 125 107 222 259 160 137 138 140 138 145 140 144 141 136 147 151 149 149 139 132 137 142 144 144 144 134 132 140 141 142 143 136 134 128 118 116 109 111 124 113 116 124 120 116 100 98 103 109 127 100 99 113 114 114 112 123 98 91 91 94 80 74 79 81 96 90 100 38 29 65 68 60 114 131 319 291 188 201 170
175 220 259 177 192 125 194 193 134 117 109 107 121 123 121 150 101 97 133 152 227 224 127 136 138 139 143 144 141 141 141 144 153 156 151 144 143 143 142 141 144 141 133 134 141 139 135 139 141 138 118 103 105 101 108 135 118 119 130 136 113 105 107 106 104 125 114 120 149 156 130 113 107 99 100 120 126 112 107 106 104 102 99 129 136 138 130 150 224 234 224 252 267 267 263 231 194
117 289 311 169 176 141 182 155 138 133 125 114 129 117 123 112 94 109 99 184 279 324 133 137 137 140 142 139 142 145 143 148 152 149 146 143 143 145 148 149 147 137 137 138 135 131 132 139 140 137 124 113 113 113 108 126 145 127 128 130 126 113 104 108 122 127 113 114 95 125 119 121 120 114 111 126 139 142 141 143 144 155 163 161 196 190 183 201 219 200 210 230 240 238 241 234 224
141 102 318 183 198 149 161 144 138 125 125 130 96 154 103 135 102 206 155 225 267 356 136 133 135 139 141 143 149 144 149 153 149 148 151 142 144 145 148 144 139 134 136 136 134 134 139 141 139 141 136 144 131 129 129 147 123 127 138 124 111 131 115 113 119 127 116 121 117 110 119 123 132 127 138 158 153 143 152 148 158 156 163 180 198 214 185 193 187 197 205 223 227 229 208 191 202
109 164 182 172 165 140 151 141 140 117 114 115 134 120 91 76 117 149 177 194 157 123 168 132 140 141 145 147 143 144 149 150 146 155 147 141 147 146 149 138 139 141 140 143 140 143 146 144 145 141 146 141 122 130 142 147 120 108 112 121 117 144 113 122 132 120 129 135 123 127 134 130 130 131 157 200 170 168 160 151 162 161 163 184 187 210 170 196 205 203 205 211 214 191 181 129 130
172 181 35 141 138 176 147 146 127 115 115 123 110 70 67 43 261 151 169 300 187 208 153 139 139 144 147 147 144 149 156 158 149 158 144 146 141 147 143 136 141 148 147 144 147 145 145 145 149 147 149 145 144 159 156 162 156 143 124 88 133 125 111 112 117 115 125 132 139 152 145 134 146 154 174 202 179 161 150 158 154 159 168 174 169 165 170 164 220 265 278 280 200 176 161 178 136
161 183 143 182 143 167 153 144 133 123 119 136 117 106 48 9 18 120 180 209 79 167 142 140 144 147 149 152 149 156 165 156 159 150 144 138 148 152 134 134 146 143 146 148 148 148 147 151 148 149 147 149 156 154 160 206 167 148 142 134 140 110 104 120 113 116 119 128 140 143 130 134 146 168 175 205 165 142 124 117 135 129 128 149 96 139 168 188 238 232 234 229 183 172 178 168 147
147 112 106 138 123 73 151 134 130 132 122 132 117 94 55 344 344 128 82 72 66 160 145 146 149 150 153 153 157 167 164 158 166 147 144 150 153 143 136 144 146 143 149 152 152 150 152 153 150 149 149 153 155 145 157 175 314 135 112 122 110 114 111 100 114 126 135 135 147 138 130 131 156 158 194 204 155 148 144 134 127 130 156 193 179 163 135 214 233 250 254 238 175 166 180 178 164
147 118 124 82 75 102 241 142 135 157 120 139 128 91 49 343 193 308 311 359 132 163 148 151 154 154 157 158 161 173 153 167 170 145 160 148 155 142 141 141 143 146 140 145 151 155 158 154 151 152 153 156 153 158 161 162 178 138 101 107 79 103 101 105 105 107 110 139 148 136 135 151 146 162 215 207 155 149 148 136 140 150 162 191 212 151 153 223 265 311 290 355 329 242 173 182 147
155 165 124 105 72 271 143 55 116 137 148 158 174 120 211 269 293 323 307 347 163 156 153 155 156 157 153 158 164 159 160 168 161 160 149 151 150 142 141 139 150 144 138 143 152 159 161 151 151 150 156 158 162 158 156 159 165 146 121 106 92 51 75 105 120 110 134 152 143 143 158 176 158 193 190 200 168 145 145 148 148 152 171 187 184 139 153 204 250 350 324 2 280 238 251 162 125
166 165 121 139 166 156 263 340 144 127 160 186 224 124 184 231 260 277 290 283 175 156 161 156 158 153 151 148 171 157 165 166 161 154 143 142 138 138 136 141 147 131 135 145 158 154 147 151 152 154 160 162 164 158 159 156 148 157 163 144 141 157 139 129 142 151 156 167 148 155 171 168 158 167 177 166 182 154 158 165 159 165 174 181 144 132 157 235 152 256 9 331 348 317 182 104 112
167 149 183 163 138 188 201 202 136 91 179 227 241 108 175 196 219 240 270 253 320 153 178 154 159 145 145 152 181 153 156 167 150 137 144 138 142 138 140 145 135 134 142 154 160 149 144 151 144 152 161 163 166 163 160 153 153 163 182 162 156 159 159 163 164 158 149 173 169 151 157 160 143 144 170 189 130 134 147 151 167 161 166 157 145 154 184 207 212 167 319 76 47 17 27 111 119
162 146 229 114 112 136 147 190 194 138 223 217 235 130 114 191 201 230 245 293 65 148 182 161 158 145 146 163 173 150 147 177 147 144 148 149 143 142 144 143 136 141 148 154 145 141 143 135 135 142 154 156 155 151 150 154 147 161 174 110 235 173 139 95 110 130 154 184 157 152 160 160 163 166 167 146 130 150 143 140 149 147 146 143 138 144 149 158 165 134 319 304 131 84 4 178 131
178 169 220 141 144 149 167 146 219 189 158 202 227 177 153 134 166 182 237 164 141 49 183 179 157 146 147 168 152 153 159 178 150 143 156 157 150 137 138 135 139 144 147 142 138 142 140 132 138 145 136 134 133 134 142 133 141 151 150 166 186 176 128 152 128 177 166 155 140 153 161 168 168 155 149 143 147 180 190 146 156 146 136 130 135 128 138 105 123 124 145 317 78 115 92 16 177
175 169 195 127 118 160 161 171 191 167 208 184 194 164 124 130 151 180 194 127 42 115 354 183 159 143 146 176 144 152 174 161 147 145 164 160 144 132 133 138 143 141 142 138 134 134 126 133 138 134 133 133 131 129 130 128 132 140 154 165 167 151 145 188 184 181 154 137 177 155 165 176 170 149 156 148 153 194 222 172 152 150 129 124 129 118 90 53 61 105 152 216 17 98 145 215 220
156 184 181 127 151 192 175 196 138 166 166 178 179 171 136 151 150 139 106 63 76 36 66 26 255 144 152 174 150 153 184 154 141 146 174 164 137 137 132 137 135 139 140 138 138 136 128 133 131 127 133 136 135 127 128 130 123 136 144 131 134 151 165 179 186 184 159 173 186 158 169 173 171 153 153 166 168 185 209 147 150 149 136 133 135 147 152 168 166 157 215 157 223 226 230 270 331
263 203 197 143 158 177 184 172 161 172 138 51 178 110 153 167 157 156 50 64 47 98 44 43 23 145 160 182 149 159 175 158 145 150 181 155 136 136 131 131 136 138 136 139 139 138 131 137 135 136 139 142 143 138 147 151 141 136 137 150 150 156 165 175 184 177 167 175 170 173 170 171 178 158 168 159 171 219 177 145 152 142 124 133 130 151 180 189 190 166 147 77 85 49 326 318 247
276 287 130 145 146 160 180 155 162 164 103 185 201 133 161 174 161 88 76 84 332 40 30 28 26 52 323 177 154 159 175 150 150 156 185 147 136 136 133 130 130 134 140 139 145 141 138 140 140 141 139 146 154 150 157 167 153 151 152 160 153 158 161 170 180 157 162 163 163 169 174 176 174 161 160 178 213 174 145 154 156 134 130 132 147 156 214 197 199 116 97 42 10 121 245 254 269
264 262 115 127 131 121 149 139 145 115 123 143 133 117 183 170 125 100 107 101 78 72 105 21 18 70 303 327 165 156 173 161 157 161 180 148 138 136 136 131 132 137 141 141 147 138 143 143 140 143 144 151 166 164 161 173 162 154 152 156 155 155 166 170 147 149 141 145 159 165 171 174 170 166 166 185 190 164 149 145 139 126 134 144 149 176 160 133 109 124 125 151 341 8 238 250 178
260 226 248 135 137 132 141 157 136 136 165 119 110 132 129 119 100 72 3 72 79 137 355 59 348 335 327 276 292 163 174 160 163 165 173 149 142 138 136 134 138 140 143 142 152 145 148 146 139 146 150 154 172 183 166 175 165 156 138 153 150 154 163 148 130 121 118 133 153 163 170 170 166 171 176 182 176 173 155 149 143 135 147 154 160 156 141 147 122 117 134 157 102 353 331 239 192
222 247 218 135 152 160 150 159 136 67 72 114 136 97 94 163 153 81 0 6 118 138 137 296 284 301 76 321 295 293 178 165 161 167 168 149 146 144 140 140 142 145 147 150 156 152 156 152 146 151 154 158 175 177 164 168 153 119 130 126 119 108 103 115 130 165 154 162 151 174 205 171 164 171 182 179 177 172 163 151 145 153 152 163 141 136 139 158 177 163 174 129 182 174 242 218 255
259 257 261 155 166 134 139 141 125 131 114 177 154 93 121 184 182 130 87 344 158 155 123 247 300 334 356 249 278 305 248 167 159 169 167 149 149 145 138 142 147 148 152 156 158 156 151 154 147 151 153 159 165 170 166 154 151 134 132 135 136 136 142 150 168 178 184 171 177 181 191 176 172 172 186 194 170 160 165 156 151 146 130 119 139 146 169 180 170 182 204 180 205 206 204 155 165
204 211 282 49 103 126 134 155 145 132 152 209 206 121 136 144 161 157 152 179 227 163 166 182 231 282 284 241 238 259 255 164 156 169 165 154 148 152 148 147 150 153 153 158 159 155 153 156 151 154 157 158 165 163 163 150 145 137 144 146 151 155 158 183 182 185 175 166 161 180 177 180 182 178 187 185 161 153 164 153 151 143 135 143 136 144 178 209 199 191 203 197 222 217 119 130 162
245 173 169 145 126 139 164 175 172 174 153 175 192 106 129 156 141 131 155 161 183 189 168 181 202 219 243 240 235 214 300 171 158 167 174 158 150 158 158 151 150 156 154 157 163 153 157 160 157 157 156 157 165 155 156 153 147 147 146 141 150 159 165 174 180 190 174 166 165 175 169 178 182 176 182 157 164 167 154 134 143 144 148 163 161 184 190 217 195 171 175 187 155 114 110 111 62
248 261 172 178 151 166 172 178 178 150 148 155 189 121 93 113 189 115 156 146 167 179 201 176 195 217 230 240 240 105 313 297 167 166 175 160 153 159 157 154 152 154 160 160 166 153 156 161 160 157 157 157 164 152 151 153 148 155 157 149 151 164 158 162 158 164 168 170 164 163 166 173 177 175 179 169 174 169 163 158 147 151 157 179 183 194 201 208 153 159 133 132 166 355 100 139 125
244 272 307 255 156 158 193 202 172 149 152 171 170 180 104 98 154 140 227 191 172 186 193 188 193 200 205 223 248 93 302 306 307 173 167 163 152 160 159 156 156 158 162 158 157 151 157 161 163 164 163 158 166 154 153 153 159 160 163 156 168 171 157 144 143 149 158 170 167 169 159 164 171 166 177 174 166 177 172 167 165 177 180 190 188 191 198 178 154 155 156 173 197 138 223 71 155
183 225 251 256 176 160 206 113 10 127 220 189 176 173 132 135 173 179 182 207 174 155 169 197 197 202 189 317 342 321 243 293 69 29 311 162 152 156 158 166 165 157 160 159 155 155 157 163 163 170 171 159 165 162 158 162 166 175 177 168 175 169 161 143 147 148 152 164 160 161 163 172 171 173 167 172 174 176 177 177 182 195 197 192 177 171 192 178 187 165 177 181 172 162 173 249 307
239 185 232 60 10 43 78 119 268 285 282 270 156 156 98 111 151 160 237 203 163 166 171 181 191 185 167 184 237 244 270 214 59 85 19 136 150 154 155 173 168 161 162 161 155 156 158 164 164 168 175 165 167 164 164 166 173 179 188 171 177 165 162 151 153 158 160 158 160 159 167 164 179 182 165 166 181 186 178 191 195 198 197 181 175 189 200 188 177 174 179 166 160 171 174 148 202
217 223 234 135 334 57 168 119 185 207 229 85 103 106 73 46 102 140 153 154 169 155 154 155 146 123 132 215 241 245 230 203 140 95 102 77 125 159 161 173 167 165 163 162 157 157 158 165 165 168 180 168 170 170 169 173 175 180 187 178 183 161 164 151 156 153 160 157 160 160 166 168 179 187 179 173 186 184 187 197 200 188 193 198 183 192 191 175 181 176 173 175 155 171 199 183 198
344 158 129 165 159 141 221 178 170 262 244 105 112 86 74 97 74 101 127 127 124 105 98 102 150 176 165 183 219 215 204 202 138 122 99 92 81 1 166 174 162 167 164 162 156 160 160 167 169 170 181 170 170 175 174 176 182 179 187 178 177 161 164 152 160 158 162 159 163 170 173 172 179 189 183 183 195 181 185 198 182 188 186 197 191 177 194 176 171 163 168 168 191 198 205 200 211
255 23 255 137 155 151 181 157 189 202 175 103 91 70 169 146 185 138 129 107 104 101 106 96 108 138 170 198 189 159 130 99 134 134 131 122 108 101 26 193 161 166 168 163 158 159 162 165 171 174 178 175 171 177 177 181 182 179 185 181 175 165 162 157 161 164 163 164 169 168 172 171 176 189 190 197 197 173 182 192 179 183 181 167 172 170 189 178 182 154 170 181 189 188 195 207 225
188 213 321 335 238 141 198 208 178 185 128 90 359 80 128 94 84 82 76 93 98 105 105 105 107 97 116 160 141 111 110 105 94 76 66 59 72 19 71 333 179 163 170 173 157 161 164 164 172 175 179 177 173 174 180 186 184 181 180 182 178 168 161 158 158 161 165 170 169 168 177 172 180 179 199 201 194 169 180 184 183 178 174 164 168 179 179 179 176 150 176 176 176 184 189 194 215
261 171 214 235 217 205 265 271 242 203 79 69 111 97 99 87 33 31 59 110 108 106 97 84 68 69 64 79 90 27 4 19 24 52 54 42 31 35 15 3 258 171 169 179 161 167 163 163 170 173 176 181 175 174 179 183 188 179 187 182 175 168 168 168 170 167 169 171 171 170 177 182 179 181 186 177 173 169 176 181 184 178 176 172 173 187 180 176 168 170 187 177 195 191 188 203 216
302 254 315 322 312 45 50 260 336 65 102 130 163 131 139 145 117 176 88 61 119 113 96 80 62 58 51 45 60 116 76 50 42 38 21 30 31 38 29 26 42 350 254 173 169 170 164 164 171 170 173 181 178 176 178 180 184 186 186 187 184 180 176 177 169 173 168 166 177 182 178 166 184 186 177 171 163 172 173 185 180 179 177 177 182 191 187 179 171 185 195 205 216 184 175 218 216
162 127 329 341 333 331 304 101 279 102 85 105 21 20 84 6 133 152 160 149 146 110 101 81 65 51 49 43 59 61 54 34 27 19 17 12 48 67 68 204 51 328 90 71 66 71 149 166 171 170 175 180 176 179 179 182 179 187 191 189 187 184 183 181 176 177 168 172 175 183 180 188 181 174 171 160 162 173 172 183 179 184 184 188 186 191 189 178 185 190 196 203 212 188 196 211 237
343 15 305 199 229 227 259 208 201 90 148 112 116 216 74 286 67 121 129 129 108 106 97 89 79 68 54 46 56 66 55 41 26 27 32 27 77 141 204 248 50 20 16 13 51 89 91 72 59 164 181 171 172 178 180 183 186 189 187 187 189 185 184 185 184 178 184 181 176 177 179 177 194 169 177 164 170 170 178 187 184 186 195 188 190 190 190 177 188 204 203 202 207 181 192 208 236
204 267 270 283 237 143 178 238 214 138 153 146 138 135 301 257 185 188 141 123 118 110 105 98 88 76 67 57 53 67 59 44 46 36 36 48 76 161 32 53 68 24 357 17 40 73 73 62 63 60 36 265 147 180 181 185 186 195 184 188 190 188 186 187 192 181 187 189 180 176 178 175 181 186 181 157 178 170 172 183 189 188 190 192 193 195 192 176 189 208 215 196 208 186 193 220 222
231 185 227 233 276 277 246 291 228 145 126 154 145 112 105 179 151 199 197 122 107 102 102 99 91 85 75 68 60 52 56 62 61 52 53 53 45 24 39 90 96 130 265 76 54 91 89 95 82 61 50 352 345 136 40 342 277 197 195 186 194 189 190 187 196 183 189 187 186 178 182 168 177 186 185 173 170 174 176 179 192 206 206 192 192 195 193 180 186 204 211 203 206 192 198 214 212